Bedford, MA

4:05 PM EST on February 18, 2018 (GMT -0500)
Hanscom

Weather History for KBED - February, 2013

Change the Weather History Date:

Wednesday, February 20, 2013

  Actual Average Record
Temperature  
Mean Temperature 32 °F -  
Max Temperature 39 °F 40 °F 60 °F (2016)
Min Temperature 25 °F 21 °F -5 °F (1966)
Degree Days  
Heating Degree Days 33    
Moisture  
Dew Point 15 °F    
Average Humidity 54    
Maximum Humidity 82    
Minimum Humidity 30    
Precipitation  
Precipitation 0.00 in - - ()
Sea Level Pressure  
Sea Level Pressure 29.67 in    
Wind  
Wind Speed 11 mph (West)    
Max Wind Speed 25 mph    
Max Gust Speed 38 mph    
Visibility 10 miles    
Events Rain    
Averages and records for this station are not official NWS values.
T = Trace of Precipitation, MM = Missing Value Source: NWS Daily Summary

Daily Weather History Graph

Daily Weather History Graph

Search for Another Location

Airport or City:

Trip Planner

Search our weather history database for the weather conditions in past years. The results will help you decide how hot, cold, wet, or windy it might be!

Date:

Astronomy

Feb. 20, 2013 Rise Set
Actual Time 6:34 AM EST 5:24 PM EST
Civil Twilight 6:05 AM EST 5:52 PM EST
Nautical Twilight 5:33 AM EST 6:25 PM EST
Astronomical Twilight 5:00 AM EST 6:57 PM EST
Moon 12:39 PM EST (2/20) 2:55 AM EST (2/20)
Length of Visible Light 11h 46m
Length of Day
10h 49m
Waxing Gibbous, 76% of the Moon is Illuminated
Feb 20
Waxing Gibbous
Feb 25
Full
Mar 4
Last Quarter
Mar 11
New
Mar 19
First Quarter

Hourly Weather History & Observations

Time (EST) Temp. Windchill Dew Point Humidity Pressure Visibility Wind Dir Wind Speed Gust Speed Precip Events Conditions
12:12 AM 39.2 °F 35.9 °F 32.0 °F 75% 29.56 in 10.0 mi WSW 4.6 mph - 0.00 in   Overcast
12:56 AM 39.9 °F 37.8 °F 32.0 °F 73% 29.58 in 10.0 mi WSW 3.5 mph - 0.00 in   Overcast
1:56 AM 37.9 °F 32.1 °F 32.0 °F 79% 29.59 in 10.0 mi SW 8.1 mph - N/A   Mostly Cloudy
2:56 AM 37.9 °F 32.7 °F 32.0 °F 79% 29.57 in 10.0 mi West 6.9 mph - N/A   Mostly Cloudy
3:33 AM 37.4 °F 28.9 °F 32.0 °F 81% 29.53 in 10.0 mi West 13.8 mph 23.0 mph 0.00 in Rain Light Rain
3:49 AM 37.4 °F 29.3 °F 30.2 °F 75% 29.54 in 10.0 mi West 12.7 mph 25.3 mph 0.00 in   Overcast
3:56 AM 36.0 °F 27.5 °F 30.9 °F 82% 29.59 in 10.0 mi West 12.7 mph 20.7 mph 0.00 in   Overcast
4:56 AM 33.8 °F 25.3 °F 28.4 °F 81% 29.57 in 10.0 mi West 11.5 mph - N/A   Mostly Cloudy
5:56 AM 33.8 °F 25.3 °F 24.8 °F 70% 29.58 in 10.0 mi West 11.5 mph - N/A   Partly Cloudy
6:56 AM 30.9 °F 22.2 °F 21.9 °F 69% 29.65 in 10.0 mi West 10.4 mph 24.2 mph N/A   Mostly Cloudy
7:56 AM 30.9 °F 21.2 °F 18.0 °F 59% 29.68 in 10.0 mi West 12.7 mph - N/A   Clear
8:56 AM 32.0 °F 22.5 °F 17.1 °F 54% 29.69 in 10.0 mi West 12.7 mph 20.7 mph N/A   Scattered Clouds
9:56 AM 32.0 °F 20.1 °F 17.1 °F 54% 29.69 in 10.0 mi West 19.6 mph 29.9 mph N/A   Overcast
10:56 AM 32.0 °F 20.8 °F 15.1 °F 50% 29.69 in 10.0 mi West 17.3 mph 32.2 mph N/A   Mostly Cloudy
11:56 AM 32.0 °F 21.2 °F 12.9 °F 45% 29.69 in 10.0 mi West 16.1 mph 28.8 mph N/A   Overcast
12:56 PM 32.0 °F 21.2 °F 12.9 °F 45% 29.68 in 10.0 mi West 16.1 mph 23.0 mph N/A   Overcast
1:56 PM 30.2 °F 17.8 °F 10.4 °F 44% 29.63 in 10.0 mi West 19.6 mph 28.8 mph N/A   Mostly Cloudy
2:56 PM 32.0 °F 20.5 °F 10.0 °F 40% 29.68 in 10.0 mi West 18.4 mph 27.6 mph N/A   Mostly Cloudy
3:56 PM 30.9 °F 20.2 °F 8.1 °F 38% 29.69 in 10.0 mi West 15.0 mph 27.6 mph N/A   Clear
4:56 PM 28.9 °F 18.2 °F 9.0 °F 43% 29.71 in 10.0 mi West 13.8 mph 24.2 mph N/A   Mostly Cloudy
5:56 PM 28.0 °F 16.1 °F 1.0 °F 31% 29.74 in 10.0 mi West 16.1 mph 26.5 mph N/A   Scattered Clouds
6:56 PM 27.0 °F 11.9 °F -0.9 °F 30% 29.75 in 10.0 mi WNW 25.3 mph 38.0 mph N/A   Partly Cloudy
7:56 PM 27.0 °F 14.7 °F -0.9 °F 30% 29.76 in 10.0 mi West 16.1 mph 27.6 mph N/A   Overcast
8:56 PM 26.1 °F 13.6 °F -2.0 °F 30% 29.77 in 10.0 mi West 16.1 mph 24.2 mph N/A   Mostly Cloudy
9:56 PM 25.0 °F 15.5 °F -2.9 °F 30% 29.78 in 10.0 mi West 9.2 mph - N/A   Clear
10:56 PM 26.1 °F 14.0 °F -2.0 °F 30% 29.81 in 10.0 mi West 15.0 mph 20.7 mph N/A   Clear
11:56 PM 26.1 °F 15.6 °F -0.9 °F 31% 29.81 in 10.0 mi West 11.5 mph 21.9 mph N/A   Mostly Cloudy